EN

Hourly Weather Eger

Today, 31 July, Saturday

Time Temperature Precipitation Wind Pressure Humidity
00:00 +24°C° 0 mm 1 mps 740 mmHg 46%
01:00 +24°C° 0 mm 1 mps 740 mmHg 48%
02:00 +23°C° 0 mm 1 mps 740 mmHg 50%
03:00 +23°C° 0 mm 1 mps 740 mmHg 51%
04:00 +20°C° 0 mm 0 mps 740 mmHg 53%
05:00 +24°C° 0 mm 1 mps 740 mmHg 51%
06:00 +25°C° 0 mm 1 mps 740 mmHg 48%
07:00 +26°C° 0 mm 1 mps 740 mmHg 48%
08:00 +28°C° 0.1 mm 1 mps 740 mmHg 46%
09:00 +29°C° 0.1 mm 2 mps 740 mmHg 43%
10:00 +31°C° 0.1 mm 2 mps 740 mmHg 40%
11:00 +31°C° 0 mm 3 mps 740 mmHg 40%
12:00 +33°C° 0 mm 4 mps 739 mmHg 39%
13:00 +33°C° 0 mm 4 mps 739 mmHg 38%
14:00 +33°C° 0 mm 5 mps 739 mmHg 39%
15:00 +32°C° 0 mm 5 mps 739 mmHg 40%
16:00 +32°C° 0 mm 5 mps 740 mmHg 41%
17:00 +29°C° 0 mm 4 mps 740 mmHg 47%
18:00 +27°C° 0 mm 3 mps 740 mmHg 53%
19:00 +26°C° 0 mm 2 mps 740 mmHg 60%
20:00 +25°C° 0 mm 2 mps 740 mmHg 63%
21:00 +24°C° 0 mm 2 mps 740 mmHg 67%
22:00 +23°C° 0 mm 2 mps 741 mmHg 71%
23:00 +21°C° 0 mm 2 mps 741 mmHg 74%

Tomorrow, 1 August, Sunday

Time Temperature Precipitation Wind Pressure Humidity
00:00 +22°C° 0 mm 1 mps 741 mmHg 77%
01:00 +21°C° 0 mm 1 mps 741 mmHg 80%
02:00 +21°C° 0 mm 1 mps 741 mmHg 82%
03:00 +20°C° 0 mm 1 mps 741 mmHg 83%
04:00 +20°C° 0 mm 1 mps 741 mmHg 84%
05:00 +20°C° 0.1 mm 2 mps 740 mmHg 78%
06:00 +23°C° 0.1 mm 2 mps 740 mmHg 72%
07:00 +24°C° 0.1 mm 3 mps 740 mmHg 66%
08:00 +26°C° 0.2 mm 3 mps 740 mmHg 59%
09:00 +28°C° 0.2 mm 3 mps 740 mmHg 52%
10:00 +30°C° 0.2 mm 3 mps 739 mmHg 45%
11:00 +34°C° 0 mm 4 mps 738 mmHg 37%
12:00 +36°C° 0 mm 4 mps 738 mmHg 30%
13:00 +40°C° 0 mm 5 mps 737 mmHg 22%
14:00 +40°C° 0 mm 6 mps 736 mmHg 21%
15:00 +40°C° 0 mm 6 mps 736 mmHg 20%
16:00 +40°C° 0 mm 7 mps 735 mmHg 19%
17:00 +35°C° 0.3 mm 5 mps 736 mmHg 36%
18:00 +29°C° 0.3 mm 4 mps 737 mmHg 53%
19:00 +25°C° 0.3 mm 2 mps 737 mmHg 71%
20:00 +24°C° 0 mm 2 mps 737 mmHg 74%
21:00 +23°C° 0 mm 2 mps 737 mmHg 78%
22:00 +23°C° 0 mm 2 mps 737 mmHg 82%
23:00 +21°C° 0 mm 2 mps 738 mmHg 84%

Day after tomorrow, 2 August, Monday

Time Temperature Precipitation Wind Pressure Humidity
00:00 +20°C° 0 mm 2 mps 738 mmHg 87%
01:00 +19°C° 0 mm 3 mps 738 mmHg 89%
02:00 +19°C° 0 mm 3 mps 738 mmHg 90%
03:00 +18°C° 0 mm 3 mps 739 mmHg 91%
04:00 +17°C° 0 mm 2 mps 739 mmHg 92%
05:00 +18°C° 0 mm 3 mps 739 mmHg 87%
06:00 +19°C° 0 mm 3 mps 740 mmHg 82%
07:00 +20°C° 0 mm 4 mps 740 mmHg 76%
08:00 +22°C° 0 mm 4 mps 741 mmHg 66%
09:00 +25°C° 0 mm 4 mps 741 mmHg 56%
10:00 +27°C° 0 mm 5 mps 741 mmHg 45%
11:00 +27°C° 0 mm 5 mps 741 mmHg 42%
12:00 +28°C° 0 mm 5 mps 741 mmHg 39%
13:00 +29°C° 0 mm 5 mps 742 mmHg 36%
14:00 +28°C° 0 mm 5 mps 742 mmHg 38%
15:00 +28°C° 0 mm 4 mps 742 mmHg 39%
16:00 +28°C° 0 mm 4 mps 742 mmHg 40%
17:00 +26°C° 0 mm 3 mps 742 mmHg 46%
18:00 +24°C° 0 mm 3 mps 742 mmHg 51%
19:00 +22°C° 0 mm 3 mps 742 mmHg 56%
20:00 +21°C° 0 mm 2 mps 743 mmHg 60%
21:00 +20°C° 0 mm 1 mps 743 mmHg 64%
22:00 +19°C° 0 mm 1 mps 743 mmHg 69%
23:00 +19°C° 0 mm 1 mps 744 mmHg 71%

3 August, Tuesday

Time Temperature Precipitation Wind Pressure Humidity
00:00 +18°C° 0 mm 1 mps 744 mmHg 73%
01:00 +16°C° 0 mm 1 mps 744 mmHg 76%
02:00 +16°C° 0 mm 1 mps 744 mmHg 78%
03:00 +16°C° 0 mm 1 mps 744 mmHg 79%
04:00 +15°C° 0 mm 1 mps 745 mmHg 81%
05:00 +18°C° 0 mm 1 mps 745 mmHg 74%
06:00 +20°C° 0 mm 1 mps 745 mmHg 66%
07:00 +20°C° 0 mm 0 mps 745 mmHg 59%
08:00 +24°C° 0 mm 1 mps 745 mmHg 52%
09:00 +25°C° 0 mm 1 mps 745 mmHg 45%
10:00 +27°C° 0 mm 2 mps 745 mmHg 38%
11:00 +28°C° 0 mm 2 mps 745 mmHg 35%
12:00 +29°C° 0 mm 2 mps 745 mmHg 32%
13:00 +30°C° 0 mm 3 mps 744 mmHg 28%
14:00 +30°C° 0 mm 3 mps 744 mmHg 28%
15:00 +31°C° 0 mm 3 mps 744 mmHg 27%
16:00 +31°C° 0 mm 3 mps 743 mmHg 26%
17:00 +29°C° 0 mm 2 mps 743 mmHg 32%
18:00 +27°C° 0 mm 2 mps 743 mmHg 37%
19:00 +25°C° 0 mm 1 mps 743 mmHg 43%
20:00 +24°C° 0 mm 1 mps 743 mmHg 45%
21:00 +23°C° 0 mm 1 mps 743 mmHg 46%
22:00 +22°C° 0 mm 1 mps 743 mmHg 48%
23:00 +22°C° 0 mm 1 mps 743 mmHg 50%

4 August, Wednesday

Time Temperature Precipitation Wind Pressure Humidity
00:00 +21°C° 0 mm 1 mps 743 mmHg 53%
01:00 +20°C° 0 mm 1 mps 743 mmHg 55%
02:00 +20°C° 0 mm 1 mps 743 mmHg 55%
03:00 +21°C° 0 mm 1 mps 743 mmHg 54%
04:00 +21°C° 0 mm 1 mps 743 mmHg 54%
05:00 +22°C° 0 mm 1 mps 743 mmHg 51%
06:00 +23°C° 0 mm 1 mps 743 mmHg 48%
07:00 +24°C° 0 mm 2 mps 743 mmHg 45%
08:00 +27°C° 0 mm 2 mps 743 mmHg 39%
09:00 +29°C° 0 mm 2 mps 743 mmHg 34%
10:00 +31°C° 0 mm 2 mps 743 mmHg 28%
11:00 +32°C° 0 mm 2 mps 743 mmHg 26%
12:00 +34°C° 0 mm 3 mps 742 mmHg 24%
13:00 +35°C° 0 mm 3 mps 742 mmHg 21%
14:00 +35°C° 0 mm 3 mps 741 mmHg 21%
15:00 +35°C° 0 mm 3 mps 741 mmHg 22%
16:00 +35°C° 0 mm 2 mps 741 mmHg 22%
17:00 +32°C° 0 mm 2 mps 740 mmHg 26%
18:00 +30°C° 0 mm 2 mps 740 mmHg 30%
19:00 +28°C° 0 mm 2 mps 739 mmHg 34%
20:00 +27°C° 0 mm 2 mps 739 mmHg 34%
21:00 +26°C° 0 mm 1 mps 739 mmHg 35%
22:00 +25°C° 0 mm 1 mps 739 mmHg 36%
23:00 +25°C° 0 mm 1 mps 738 mmHg 36%

5 August, Thursday

Time Temperature Precipitation Wind Pressure Humidity
00:00 +25°C° 0 mm 1 mps 738 mmHg 36%
01:00 +25°C° 0 mm 1 mps 738 mmHg 36%
02:00 +24°C° 0 mm 2 mps 737 mmHg 39%
03:00 +24°C° 0 mm 2 mps 737 mmHg 42%
04:00 +24°C° 0 mm 2 mps 737 mmHg 45%
05:00 +23°C° 0.1 mm 2 mps 737 mmHg 52%
06:00 +23°C° 0.1 mm 2 mps 737 mmHg 60%
07:00 +22°C° 0.1 mm 1 mps 737 mmHg 68%
08:00 +23°C° 0.4 mm 2 mps 737 mmHg 69%
09:00 +23°C° 0.4 mm 2 mps 737 mmHg 70%
10:00 +23°C° 0.4 mm 2 mps 738 mmHg 72%
11:00 +23°C° 0.4 mm 4 mps 738 mmHg 67%
12:00 +25°C° 0.4 mm 5 mps 738 mmHg 61%
13:00 +26°C° 0.4 mm 6 mps 738 mmHg 56%
14:00 +24°C° 0.1 mm 6 mps 738 mmHg 58%
15:00 +23°C° 0.1 mm 6 mps 737 mmHg 61%
16:00 +22°C° 0.1 mm 7 mps 737 mmHg 63%
17:00 +21°C° 0 mm 6 mps 737 mmHg 65%
18:00 +20°C° 0 mm 6 mps 737 mmHg 67%
19:00 +19°C° 0 mm 5 mps 737 mmHg 70%
20:00 +19°C° 0 mm 4 mps 738 mmHg 72%
21:00 +18°C° 0 mm 3 mps 738 mmHg 75%
22:00 +17°C° 0 mm 2 mps 738 mmHg 78%
23:00 +16°C° 0 mm 2 mps 738 mmHg 81%
Show more

We Need Your Consent

Meteoprog and our Service Providers may store and access personal data such as cookies, device identifiers or other similar technologies on your device and process such data to personalise content and ads, as well as provide social media features and to analyse the traffic.

  • Store and/or access information on your device

    Cookies, device identifiers or other information can be stored or accessed on your device for the purposes indicated above.

  • Personalised ads and content, ad and content measurement, audience insights, and products development

    Ads and content can be personalised based on a profile. More data can be added to better personalise ads and content. Ad and content performance can be measured. Insights about the audience who saw the ads and content can be derived. Such data can be used to develop or improve user’s experience, systems and software.

By clicking ‘I Agree’ you will allow the use of indicated cookies, device identifiers, web beacons or other similar technologies. Your settings can be changed in the browser on your device.

For certain purposes, legitimate interests may be relied on, rather than consent. You can read more about this in our Privacy and Cookie Policy.